Find Starlink 5291

NORAD ID: 55273 Int'l Des: 2023-010 Owner: SPXS Country: US Constellation: starlink operational
LEOCIRCULAR

リアルタイム位置

3D地球を読み込み中...

Starlink 5291について

説明を読み込み中...

次回通過

Passes for default location (London). Set your location on the main map for personalized predictions.

高度履歴

Loading altitude history...

軌道要素

1 55273U 23010E 26127.53284502 -.00000223 00000-0 -10936-4 0 9997
2 55273 69.9998 255.9476 0002972 270.5083 89.5735 14.98332593181607
Epoch: May 7, 2026 • Age: 8 hours

現在のステータス

高度 577.0 km
速度 7.57 km/s
衛星直下点 -14.91°S, 72.94°E
打ち上げ日 Jan 19, 2023
運用期間 3.2 years
タイプ internet

技術仕様

分類 Payload
質量 305.00 kg
乾燥質量 290.00 kg
総質量 305.00 kg
長さ 0.20 m
直径 2.80 m
スパン 9.00 m
形状 Box + pan
製造者 SPXS
バスタイプ Starlink
フェーズステータス In Orbit
所有者/国 SPXS/US

Most Searched